Lid_Strength_Index
4 6 7 6 5 5 6 7 7 6 5 6 6 6 5 4 4 4 4 4 3 3 2 1 1 1 0 0 0 -0 -0 -0 -0 0 1 1 1 0 -1 -1 0 0 0 -1
5 7 5 5 5 6 6 7 7 6 5 6 6 6 5 4 4 4 4 3 3 3 2 2 1 1 1 1 0 0 0 0 0 0 -0 0 0 -0 0 1 1 0 -0 -2
7 6 5 5 6 7 7 7 7 7 6 6 6 7 6 5 4 3 3 3 3 3 3 2 2 1 1 1 1 0 1 1 -0 -0 -0 -0 0 1 -0 2 2 1 -2 -2
6 5 6 6 7 6 8 6 6 7 7 9 6 10 7 6 5 4 4 3 3 3 2 2 2 2 1 1 1 0 1 0 0 -0 0 1 2 2 2 2 1 0 -2 -2
6 6 6 7 7 5 7 5 6 6 7 8 8 9 8 6 6 5 4 3 3 2 2 2 2 2 1 1 1 1 1 1 0 0 0 1 1 1 -0 2 -0 -1 -2 -2
5 4 5 6 5 5 5 6 6 6 7 10 8 9 9 7 6 5 4 3 3 3 2 2 2 2 2 1 1 1 1 1 0 1 1 1 1 1 2 1 1 0 -0 -1
6 6 5 4 6 5 6 7 11 11 11 11 8 9 8 6 5 5 4 4 3 3 2 2 2 2 3 2 2 2 1 1 1 1 1 1 1 1 1 1 1 0 0 0
9 10 6 5 6 7 7 7 10 13 13 11 8 10 8 5 4 4 3 3 3 3 2 2 2 2 3 2 2 2 1 1 1 1 1 1 0 2 2 -0 0 0 -0 -0
8 9 5 5 5 5 7 8 6 9 8 10 9 8 6 5 5 4 4 3 3 3 3 2 2 2 3 2 2 2 2 1 1 1 0 1 0 0 2 -0 -1 -0 -1 -0
6 9 6 5 5 5 6 5 9 9 13 13 10 9 9 7 6 5 4 4 3 3 3 2 2 2 2 2 2 2 2 1 1 0 0 0 0 0 -0 -0 -0 -1 -1 -1
5 7 8 6 7 7 7 8 7 8 9 12 12 10 6 6 5 5 4 3 3 3 3 2 2 2 2 2 2 2 1 1 1 1 0 0 0 0 -0 -0 -0 -1 -1 -1
5 6 9 8 5 5 6 7 7 10 11 9 10 10 5 5 4 4 4 3 3 2 2 2 2 2 2 2 2 2 2 1 1 0 1 1 1 0 0 0 -0 -1 -0 -1
5 7 11 9 7 6 7 6 6 6 7 10 12 10 5 4 4 4 4 3 3 2 2 2 2 2 2 2 2 2 2 1 1 1 1 1 1 1 1 0 -0 -0 -0 -1
4 8 9 11 9 7 8 7 7 7 10 9 9 8 6 5 5 4 4 3 3 3 2 2 2 2 2 2 2 2 2 1 1 1 1 1 1 1 1 0 0 -0 -0 1
5 9 8 7 7 7 7 8 7 8 8 9 8 8 6 5 5 4 3 3 3 3 3 2 2 2 2 2 2 2 1 1 1 1 1 1 1 1 1 1 0 0 2 4
5 9 8 9 7 7 8 7 7 7 7 7 7 8 5 4 4 4 4 3 3 3 3 2 2 2 2 2 2 2 1 1 1 1 2 1 1 1 1 1 1 2 5 5
8 9 10 12 8 8 10 8 7 7 6 7 8 6 5 5 4 4 4 3 3 3 3 2 2 2 1 1 1 2 1 1 1 1 1 1 1 1 1 1 3 4 6 6
8 8 9 12 10 15 8 5 6 6 6 5 6 5 5 4 4 3 3 3 3 3 2 2 2 1 1 1 1 1 1 1 2 2 2 1 2 2 2 3 4 4 5 5
6 8 11 13 13 10 8 6 7 7 7 5 5 5 4 4 3 4 3 2 2 2 2 2 2 1 1 1 1 1 1 1 2 2 2 2 2 3 4 4 5 5 5 5
6 7 10 11 14 15 9 5 4 5 10 5 4 5 4 4 7 5 3 3 2 2 2 2 2 1 1 1 1 1 2 2 2 2 2 1 2 3 4 5 6 5 5 5
10 10 12 12 13 11 6 5 4 11 9 5 4 4 4 5 4 4 3 3 2 2 2 2 1 1 2 1 1 2 2 2 2 1 1 2 2 4 4 6 7 6 6 6
10 12 14 13 15 15 6 6 8 6 4 5 4 4 4 4 4 3 3 3 3 3 2 2 2 2 1 1 1 2 2 1 1 1 2 3 3 5 6 7 7 6 6 6
11 9 11 12 13 8 6 7 5 4 5 4 4 4 4 4 4 3 3 3 3 3 2 2 2 2 1 1 1 2 2 1 2 3 4 6 7 7 7 8 7 7 6 7
7 7 10 9 7 7 6 6 5 4 4 4 4 4 4 4 4 4 3 3 3 2 3 2 2 3 3 2 2 2 1 1 5 7 7 8 8 8 8 7 7 7 6 7
8 7 9 9 7 6 6 6 6 5 4 4 3 3 3 3 4 3 3 3 3 2 2 2 2 2 3 2 2 2 3 4 6 7 8 8 8 9 8 8 8 6 6 6
6 7 10 12 7 8 7 5 5 6 5 4 4 4 3 3 3 3 3 3 2 2 2 2 2 2 2 2 2 3 4 4 6 8 8 8 8 8 8 8 8 10 10 10